SCP
0 0 0 0 0 0 0 0 0 0 0 -0 0 0 0 0 0 -0 -0 -0 -0 -0 -0 -0 -0 -0 -0 -0 -0 -0 -0 0 0 0 0 0 0 0 0 0 0 0 0 0
0 0 0 0 0 0 0 0 0 -0 -0 0 0 0 0 0 0 0 -0 -0 -0 -0 -0 -0 -0 -0 -0 -0 -0 -0 -0 -0 0 0 0 -0 -0 0 0 0 0 0 0 0
0 0 0 0 -0 0 0 0 0 0 -0 0 0 0 0 0 0 -0 -0 -0 -0 -0 -0 -0 -0 -0 -0 -0 -0 -0 -0 -0 -0 -0 0 0 0 -0 0 0 0 0 0 0
0 0 0 0 0 0 0 0 0 0 -0 0 0 0 0 0 0 0 -0 -0 0 -0 -0 -0 -0 -0 -0 -0 -0 -0 -0 -0 -0 -0 -0 0 0 0 0 0 0 0 0 0
0 0 0 0 0 0 0 0 0 -0 0 0 0 0 0 0 0 -0 -0 -0 0 0 0 -0 -0 -0 0 -0 -0 -0 -0 -0 -0 -0 -0 -0 0 0 0 0 0 0 0 0
0 0 0 0 0 0 0 0 0 -0 0 0 0 0 0 -0 -0 -0 0 0 0 0 -0 0 -0 -0 0 -0 -0 -0 -0 -0 -0 -0 -0 -0 -0 0 -0 -0 -0 0 0 0
0 0 0 0 0 0 0 0 0 0 0 0 0 0 0 0 0 0 0 0 0 0 -0 -0 0 -0 0 0 -0 -0 -0 -0 -0 -0 -0 -0 0 0 0 0 0 0 0 -0
0 0 -0 0 0 0 0 0 0 0 0 0 0 0 0 0 0 0 0 0 0 0 0 0 -0 -0 0 0 0 0 0 0 -0 -0 -0 -0 -0 0 0 0 0 0 0 0
0 0 0 0 0 0 0 0 0 0 0 0 0 0 0 0 0 0 0 0 0 0 0 0 0 0 0 0 0 0 0 0 0 -0 -0 -0 -0 -0 0 0 0 0 -0 -0
0 0 0 0 -0 0 0 0 0 0 0 0 0 0 0 0 0 0 0 0 0 0 0 0 0 0 0 0 0 0 0 0 0 0 0 0 0 0 0 0 0 0 -0 -0
0 0 0 0 0 0 0 0 0 0 0 0 0 0 0 0 0 0 0 0 0 0 0 0 0 0 0 0 0 0 0 0 0 0 0 0 0 0 0 0 0 0 0 -0
0 0 0 0 0 0 0 0 0 0 0 0 0 0 0 0 0 0 0 0 0 0 0 0 0 0 0 0 0 0 0 0 0 0 0 0 0 0 0 0 0 0 0 -0
0 0 0 0 0 0 0 0 0 0 0 0 0 0 0 0 0 0 0 0 0 0 0 0 0 0 0 0 0 0 0 0 0 0 0 0 0 0 0 0 0 0 -0 -0
0 0 0 0 0 0 0 0 0 0 0 0 0 0 0 0 0 0 0 0 0 -0 0 0 0 0 0 0 0 0 0 0 0 0 0 0 0 0 0 0 0 0 0 0
0 0 0 0 0 0 0 0 0 0 0 0 0 0 0 0 0 0 0 0 0 0 0 0 0 0 0 0 0 0 0 0 0 0 0 0 0 0 0 0 0 0 0 0
0 0 0 0 0 -0 0 0 0 0 0 0 0 0 0 0 0 0 0 0 0 0 0 0 0 0 0 0 0 0 0 0 0 0 0 0 0 0 0 0 0 0 0 0
-0 -0 0 0 -0 0 0 0 0 0 0 0 0 0 0 0 0 0 0 0 0 0 0 0 0 0 0 0 0 0 0 0 0 0 0 0 0 0 0 0 0 0 0 0
-0 -0 0 0 0 0 0 0 0 0 0 0 0 0 0 0 0 0 0 0 0 0 0 0 0 0 0 0 0 0 0 0 0 0 0 0 0 0 0 0 0 0 0 0
0 0 0 -0 0 0 0 1 0 0 0 0 0 0 0 0 0 0 0 0 0 0 0 0 0 -0 0 0 0 0 0 0 0 0 0 0 0 0 0 0 0 0 0 0
0 0 0 0 0 0 0 0 0 0 0 0 0 0 0 0 0 0 0 0 0 0 0 0 0 0 0 0 0 0 0 0 0 0 0 0 0 0 0 0 0 0 0 0
0 0 0 0 0 0 0 0 0 0 0 0 0 0 0 0 0 0 0 0 0 0 0 0 0 0 0 0 0 0 0 0 0 0 0 0 0 0 0 0 0 0 0 0
0 0 0 0 0 0 0 0 0 0 0 0 0 0 0 0 0 0 0 0 0 0 0 0 0 0 0 0 0 0 0 0 0 0 0 0 0 0 0 0 0 0 0 0
0 0 0 0 0 0 0 0 0 0 0 0 0 0 0 0 0 0 0 0 0 0 0 0 0 0 0 0 0 0 0 0 0 0 0 0 0 0 0 0 0 0 0 0
0 0 0 0 0 0 0 0 0 0 0 0 0 0 0 0 0 0 0 0 0 0 0 0 0 0 0 0 0 0 0 0 0 0 0 0 0 0 0 0 0 0 0 0
0 0 0 0 0 0 0 0 0 0 0 0 0 0 0 0 0 0 0 0 0 0 0 0 0 0 0 0 0 0 0 0 0 0 0 0 0 0 0 0 0 0 0 0
0 0 0 0 0 0 0 0 0 0 0 0 0 0 0 0 0 0 0 0 0 0 0 0 0 0 0 0 0 0 0 0 0 0 0 0 0 0 0 0 0 0 0 0
0 0 0 0 0 0 0 0 0 0 0 0 0 0 0 0 0 0 0 0 0 0 0 0 0 0 0 0 0 0 0 0 0 0 0 0 0 0 0 0 0 0 0 0
Wind_Speed_500mb
44 34 33 38 38 36 33 32 28 26 23 27 27 22 19 19 26 34 45 56 63 60 56 54 49 45 38 30 29 24 18 13 11 14 21 20 21 18 18 18 20 22 22 24
38 31 41 46 43 39 43 41 37 36 34 23 20 24 21 25 32 34 44 61 65 63 61 60 56 51 45 37 34 28 23 18 13 13 23 27 24 23 22 21 22 22 23 23
29 23 33 39 52 46 43 34 33 33 36 18 19 27 32 32 39 43 45 53 68 76 68 63 61 55 52 44 37 32 29 25 17 14 22 31 31 29 25 24 21 21 21 18
12 20 26 6 24 48 42 38 40 34 34 29 40 44 29 32 37 35 40 45 58 71 73 62 58 58 50 48 43 37 35 32 25 19 24 31 36 34 30 27 25 23 20 16
11 19 11 11 8 25 29 38 35 42 42 36 21 17 27 38 39 26 27 29 40 50 74 68 61 58 57 54 49 44 41 38 32 25 25 30 34 37 36 33 30 27 24 20
7 16 31 18 16 21 27 22 35 46 40 33 32 18 26 43 47 38 22 23 39 41 59 74 66 61 63 61 57 53 47 41 37 30 27 27 30 35 35 34 30 29 27 26
17 11 10 11 19 39 28 12 26 52 55 39 29 40 31 26 45 30 21 21 39 48 45 62 76 71 69 68 66 57 49 43 40 36 30 29 30 32 33 36 36 35 33 31
14 16 29 13 25 28 14 13 22 40 43 55 69 41 38 29 32 26 18 21 43 53 51 50 71 80 76 76 66 63 57 51 46 41 38 39 37 38 39 39 38 37 35 35
17 15 5 46 34 53 33 23 26 35 40 49 46 43 42 41 39 33 22 20 37 54 53 54 63 83 87 76 72 70 66 60 53 47 46 44 45 47 46 44 42 40 39 38
23 35 22 32 40 29 47 30 28 32 27 34 40 34 38 37 33 35 29 28 40 53 54 51 60 75 90 82 77 73 73 68 60 55 53 51 50 52 51 51 49 47 45 42
23 18 10 23 40 27 35 30 25 23 30 28 26 28 23 24 27 25 31 28 35 47 50 53 54 69 83 90 82 79 77 75 71 64 60 58 57 59 59 54 52 51 47 41
25 17 14 20 59 59 43 53 42 38 34 26 22 23 20 22 22 26 34 32 31 34 43 51 57 64 74 86 92 85 83 81 81 78 72 66 62 60 58 54 49 47 46 45
10 39 32 50 39 55 60 56 51 39 38 21 24 26 22 17 19 24 29 31 31 36 42 46 55 61 74 79 88 97 92 88 85 85 84 81 74 68 64 58 56 53 52 53
19 33 26 48 42 51 53 56 43 46 36 29 29 31 29 23 18 19 16 20 22 19 30 41 46 57 63 76 84 94 99 96 90 90 89 86 83 77 69 63 60 54 57 57
40 25 44 44 38 59 71 53 48 42 37 41 38 35 33 32 30 22 15 9 15 23 21 31 35 41 54 63 76 86 93 102 103 96 91 87 83 81 75 66 59 56 59 60
33 42 40 45 53 49 55 51 59 51 46 41 34 25 23 28 27 20 15 18 14 20 21 21 37 38 41 53 67 76 86 92 101 104 100 94 82 78 78 76 74 55 61 70
34 43 37 48 52 57 63 65 62 57 48 38 32 24 22 19 16 21 17 19 22 25 25 26 31 42 47 49 56 67 70 76 85 93 97 97 92 88 66 55 49 65 76 67
39 48 45 49 54 58 50 58 59 52 41 31 24 21 19 21 25 27 30 30 25 23 30 25 9 26 44 44 55 54 58 70 64 77 83 84 73 51 56 62 66 64 56 43
24 30 29 36 37 59 69 63 52 37 28 25 21 15 8 9 17 24 31 30 31 28 31 31 19 19 20 43 54 65 67 68 56 62 71 70 67 65 63 62 56 48 44 41
26 27 31 37 38 52 63 54 46 44 36 29 25 21 15 10 8 1 11 21 23 21 25 30 25 28 18 20 42 57 56 54 53 63 70 64 63 55 52 51 50 54 63 63
55 42 54 46 48 57 61 55 58 51 43 35 34 27 24 21 11 7 6 6 8 11 14 19 27 30 20 20 25 37 40 40 42 53 59 56 58 57 58 65 73 76 62 51
62 51 52 51 65 57 47 51 43 37 33 28 28 23 21 23 17 11 4 5 12 11 14 20 21 20 23 26 35 40 41 44 48 50 56 62 62 63 79 82 69 60 57 58
60 53 47 44 45 47 45 42 37 29 26 23 19 17 15 16 19 16 11 12 17 20 21 24 26 24 28 31 34 37 41 47 50 56 63 75 88 85 76 66 65 67 68 62
56 53 49 41 35 29 28 22 14 10 10 7 12 16 15 13 14 15 16 11 10 19 14 13 19 27 32 37 41 47 53 63 77 86 95 94 82 71 68 74 78 68 63 61
53 50 45 42 41 39 31 24 15 12 16 17 18 20 25 24 28 26 22 21 20 17 20 27 21 15 30 38 51 63 67 74 71 61 63 66 72 82 87 79 74 77 77 74
50 49 47 44 41 34 29 25 23 16 6 10 18 27 33 28 17 19 17 18 23 27 31 26 17 13 14 25 40 48 56 57 61 67 73 81 88 91 88 87 86 83 80 76
47 44 44 48 46 39 32 27 22 22 19 12 4 12 22 25 18 16 22 21 20 18 20 22 21 22 12 19 23 30 49 59 63 66 78 86 89 88 88 86 86 83 77 72
Wind_Direction_500mb
224 204 194 212 213 206 212 224 227 232 224 237 221 208 209 162 162 180 180 192 199 201 201 199 195 195 193 188 187 183 174 162 152 159 170 164 167 151 141 134 127 124 132 126
217 208 215 224 222 212 217 219 230 244 248 239 224 192 192 167 170 194 186 194 199 203 204 203 200 195 193 190 186 186 185 176 176 166 173 174 171 166 160 148 141 136 138 146
215 203 219 242 229 220 219 212 218 227 240 198 196 201 204 183 186 196 198 196 199 205 206 205 204 199 195 192 188 188 189 186 184 181 175 179 179 176 170 169 160 156 155 150
184 140 219 246 205 215 217 214 217 227 241 206 220 220 205 204 195 205 205 202 207 206 207 206 204 202 198 196 194 191 192 192 189 187 180 181 185 184 182 179 180 182 185 194
188 210 257 200 181 180 198 225 215 218 231 229 206 182 231 221 213 202 200 193 206 215 212 205 203 202 200 198 200 197 195 194 193 188 185 182 184 187 189 190 190 193 196 198
152 219 233 207 185 207 189 229 208 212 221 204 172 214 239 216 210 209 208 201 192 205 212 210 206 200 200 201 201 202 198 195 193 189 187 182 181 185 186 187 189 190 187 178
210 247 269 243 173 158 197 197 203 203 214 191 194 222 236 215 207 211 233 223 199 201 200 207 206 201 202 202 205 201 198 196 195 192 186 182 179 175 174 175 175 173 171 170
202 224 245 163 156 188 196 204 205 202 193 196 214 228 220 217 208 220 216 224 206 202 203 207 208 205 204 206 203 201 199 197 197 193 189 187 184 179 177 178 177 178 177 174
211 229 88 180 179 207 213 208 200 200 202 209 223 230 238 229 232 220 228 246 219 203 203 209 208 206 208 212 203 202 203 200 197 195 194 193 190 187 186 186 186 186 184 182
222 237 229 207 223 228 218 215 228 219 207 208 220 236 239 238 227 228 230 248 221 202 207 210 205 205 210 210 205 203 204 204 200 200 199 199 199 198 198 196 193 192 193 193
241 248 244 234 223 233 216 209 210 211 205 202 203 218 237 235 231 231 205 208 218 207 206 212 210 205 207 210 208 206 205 206 204 204 205 205 206 206 206 206 205 203 203 205
232 219 228 220 214 222 213 209 207 191 183 189 208 209 205 217 228 220 217 217 219 229 227 225 221 213 210 209 207 208 207 207 207 207 206 211 211 213 214 216 215 217 221 227
282 316 303 267 256 225 210 210 211 196 190 214 228 213 213 226 237 231 214 217 228 233 236 231 225 220 215 212 208 210 210 209 208 210 211 210 212 214 215 214 217 220 229 237
295 325 290 253 248 242 221 225 218 216 214 209 213 213 214 218 196 189 205 232 233 234 225 227 227 227 223 218 214 212 213 215 212 210 214 214 216 216 217 217 220 224 233 243
275 282 264 261 255 230 233 223 205 205 209 206 209 215 211 205 206 218 242 221 230 227 248 239 233 229 222 220 221 217 215 217 218 219 215 215 218 218 219 221 224 226 236 244
270 280 274 248 244 237 224 209 203 206 199 184 183 181 185 194 214 223 235 249 238 241 246 242 234 228 223 215 221 221 222 222 222 218 219 221 217 219 220 222 226 226 234 242
260 270 254 236 231 216 208 198 193 191 182 176 183 184 194 199 217 225 226 240 248 242 251 241 227 225 233 225 222 225 220 222 224 224 224 226 227 226 222 220 215 222 234 240
251 256 256 242 222 201 177 173 173 176 170 179 189 197 208 224 234 242 241 235 240 252 238 233 226 230 234 239 220 219 222 224 217 219 221 223 219 214 214 218 223 230 231 226
227 230 226 209 194 177 165 158 152 149 156 157 147 141 164 230 245 241 244 247 243 252 242 220 248 270 226 217 211 217 217 219 207 208 215 211 202 212 225 226 226 219 207 185
123 114 134 138 143 146 141 140 145 147 140 122 115 107 98 84 57 274 241 235 236 228 218 202 197 240 254 209 211 210 205 209 201 206 210 205 210 209 209 211 199 182 165 156
94 96 107 104 110 104 101 125 126 126 124 119 110 98 86 74 70 90 93 98 124 148 160 164 162 183 174 180 190 204 197 194 201 205 201 200 199 194 184 174 167 157 154 154
131 129 109 111 103 112 107 95 100 104 114 109 112 100 92 81 79 70 102 109 111 114 139 154 158 157 147 162 187 186 182 183 185 187 192 193 193 178 161 156 155 157 151 145
90 94 97 92 92 87 90 91 86 86 93 92 96 93 99 99 97 97 85 131 119 104 116 133 145 152 152 163 174 178 180 176 172 175 174 163 157 158 162 165 162 157 151 146
79 75 77 84 88 87 83 86 97 109 87 108 138 143 163 151 139 122 107 122 202 225 218 200 189 170 168 169 175 175 172 168 163 162 163 164 166 170 171 158 151 151 149 146
78 79 78 75 70 64 63 71 93 147 173 179 189 190 180 161 152 136 124 125 131 156 171 171 178 195 196 188 176 171 169 170 170 175 178 177 170 161 155 153 152 153 151 149
67 63 64 66 65 62 57 58 68 76 106 173 189 189 188 175 170 188 171 159 141 128 121 123 147 164 181 191 189 183 181 180 180 177 173 169 164 159 156 156 153 153 152 152
67 68 64 61 57 54 54 57 59 60 64 70 125 197 203 213 221 217 206 196 192 187 166 155 159 154 159 151 175 193 188 182 180 176 169 165 159 156 156 156 154 153 153 153
Wind_Speed_850mb
44 34 33 38 38 36 33 32 28 26 23 27 27 22 19 19 26 34 45 56 63 60 56 54 49 45 38 30 29 24 18 13 11 14 21 20 21 18 18 18 20 22 22 24
38 31 41 46 43 39 43 41 37 36 34 23 20 24 21 25 32 34 44 61 65 63 61 60 56 51 45 37 34 28 23 18 13 13 23 27 24 23 22 21 22 22 23 23
29 23 33 39 52 46 43 34 33 33 36 18 19 27 32 32 39 43 45 53 68 76 68 63 61 55 52 44 37 32 29 25 17 14 22 31 31 29 25 24 21 21 21 18
12 20 26 6 24 48 42 38 40 34 34 29 40 44 29 32 37 35 40 45 58 71 73 62 58 58 50 48 43 37 35 32 25 19 24 31 36 34 30 27 25 23 20 16
11 19 11 11 8 25 29 38 35 42 42 36 21 17 27 38 39 26 27 29 40 50 74 68 61 58 57 54 49 44 41 38 32 25 25 30 34 37 36 33 30 27 24 20
7 16 31 18 16 21 27 22 35 46 40 33 32 18 26 43 47 38 22 23 39 41 59 74 66 61 63 61 57 53 47 41 37 30 27 27 30 35 35 34 30 29 27 26
17 11 10 11 19 39 28 12 26 52 55 39 29 40 31 26 45 30 21 21 39 48 45 62 76 71 69 68 66 57 49 43 40 36 30 29 30 32 33 36 36 35 33 31
14 16 29 13 25 28 14 13 22 40 43 55 69 41 38 29 32 26 18 21 43 53 51 50 71 80 76 76 66 63 57 51 46 41 38 39 37 38 39 39 38 37 35 35
17 15 5 46 34 53 33 23 26 35 40 49 46 43 42 41 39 33 22 20 37 54 53 54 63 83 87 76 72 70 66 60 53 47 46 44 45 47 46 44 42 40 39 38
23 35 22 32 40 29 47 30 28 32 27 34 40 34 38 37 33 35 29 28 40 53 54 51 60 75 90 82 77 73 73 68 60 55 53 51 50 52 51 51 49 47 45 42
23 18 10 23 40 27 35 30 25 23 30 28 26 28 23 24 27 25 31 28 35 47 50 53 54 69 83 90 82 79 77 75 71 64 60 58 57 59 59 54 52 51 47 41
25 17 14 20 59 59 43 53 42 38 34 26 22 23 20 22 22 26 34 32 31 34 43 51 57 64 74 86 92 85 83 81 81 78 72 66 62 60 58 54 49 47 46 45
10 39 32 50 39 55 60 56 51 39 38 21 24 26 22 17 19 24 29 31 31 36 42 46 55 61 74 79 88 97 92 88 85 85 84 81 74 68 64 58 56 53 52 53
19 33 26 48 42 51 53 56 43 46 36 29 29 31 29 23 18 19 16 20 22 19 30 41 46 57 63 76 84 94 99 96 90 90 89 86 83 77 69 63 60 54 57 57
40 25 44 44 38 59 71 53 48 42 37 41 38 35 33 32 30 22 15 9 15 23 21 31 35 41 54 63 76 86 93 102 103 96 91 87 83 81 75 66 59 56 59 60
33 42 40 45 53 49 55 51 59 51 46 41 34 25 23 28 27 20 15 18 14 20 21 21 37 38 41 53 67 76 86 92 101 104 100 94 82 78 78 76 74 55 61 70
34 43 37 48 52 57 63 65 62 57 48 38 32 24 22 19 16 21 17 19 22 25 25 26 31 42 47 49 56 67 70 76 85 93 97 97 92 88 66 55 49 65 76 67
39 48 45 49 54 58 50 58 59 52 41 31 24 21 19 21 25 27 30 30 25 23 30 25 9 26 44 44 55 54 58 70 64 77 83 84 73 51 56 62 66 64 56 43
24 30 29 36 37 59 69 63 52 37 28 25 21 15 8 9 17 24 31 30 31 28 31 31 19 19 20 43 54 65 67 68 56 62 71 70 67 65 63 62 56 48 44 41
26 27 31 37 38 52 63 54 46 44 36 29 25 21 15 10 8 1 11 21 23 21 25 30 25 28 18 20 42 57 56 54 53 63 70 64 63 55 52 51 50 54 63 63
55 42 54 46 48 57 61 55 58 51 43 35 34 27 24 21 11 7 6 6 8 11 14 19 27 30 20 20 25 37 40 40 42 53 59 56 58 57 58 65 73 76 62 51
62 51 52 51 65 57 47 51 43 37 33 28 28 23 21 23 17 11 4 5 12 11 14 20 21 20 23 26 35 40 41 44 48 50 56 62 62 63 79 82 69 60 57 58
60 53 47 44 45 47 45 42 37 29 26 23 19 17 15 16 19 16 11 12 17 20 21 24 26 24 28 31 34 37 41 47 50 56 63 75 88 85 76 66 65 67 68 62
56 53 49 41 35 29 28 22 14 10 10 7 12 16 15 13 14 15 16 11 10 19 14 13 19 27 32 37 41 47 53 63 77 86 95 94 82 71 68 74 78 68 63 61
53 50 45 42 41 39 31 24 15 12 16 17 18 20 25 24 28 26 22 21 20 17 20 27 21 15 30 38 51 63 67 74 71 61 63 66 72 82 87 79 74 77 77 74
50 49 47 44 41 34 29 25 23 16 6 10 18 27 33 28 17 19 17 18 23 27 31 26 17 13 14 25 40 48 56 57 61 67 73 81 88 91 88 87 86 83 80 76
47 44 44 48 46 39 32 27 22 22 19 12 4 12 22 25 18 16 22 21 20 18 20 22 21 22 12 19 23 30 49 59 63 66 78 86 89 88 88 86 86 83 77 72
Wind_Direction_850mb
224 204 194 212 213 206 212 224 227 232 224 237 221 208 209 162 162 180 180 192 199 201 201 199 195 195 193 188 187 183 174 162 152 159 170 164 167 151 141 134 127 124 132 126
217 208 215 224 222 212 217 219 230 244 248 239 224 192 192 167 170 194 186 194 199 203 204 203 200 195 193 190 186 186 185 176 176 166 173 174 171 166 160 148 141 136 138 146
215 203 219 242 229 220 219 212 218 227 240 198 196 201 204 183 186 196 198 196 199 205 206 205 204 199 195 192 188 188 189 186 184 181 175 179 179 176 170 169 160 156 155 150
184 140 219 246 205 215 217 214 217 227 241 206 220 220 205 204 195 205 205 202 207 206 207 206 204 202 198 196 194 191 192 192 189 187 180 181 185 184 182 179 180 182 185 194
188 210 257 200 181 180 198 225 215 218 231 229 206 182 231 221 213 202 200 193 206 215 212 205 203 202 200 198 200 197 195 194 193 188 185 182 184 187 189 190 190 193 196 198
152 219 233 207 185 207 189 229 208 212 221 204 172 214 239 216 210 209 208 201 192 205 212 210 206 200 200 201 201 202 198 195 193 189 187 182 181 185 186 187 189 190 187 178
210 247 269 243 173 158 197 197 203 203 214 191 194 222 236 215 207 211 233 223 199 201 200 207 206 201 202 202 205 201 198 196 195 192 186 182 179 175 174 175 175 173 171 170
202 224 245 163 156 188 196 204 205 202 193 196 214 228 220 217 208 220 216 224 206 202 203 207 208 205 204 206 203 201 199 197 197 193 189 187 184 179 177 178 177 178 177 174
211 229 88 180 179 207 213 208 200 200 202 209 223 230 238 229 232 220 228 246 219 203 203 209 208 206 208 212 203 202 203 200 197 195 194 193 190 187 186 186 186 186 184 182
222 237 229 207 223 228 218 215 228 219 207 208 220 236 239 238 227 228 230 248 221 202 207 210 205 205 210 210 205 203 204 204 200 200 199 199 199 198 198 196 193 192 193 193
241 248 244 234 223 233 216 209 210 211 205 202 203 218 237 235 231 231 205 208 218 207 206 212 210 205 207 210 208 206 205 206 204 204 205 205 206 206 206 206 205 203 203 205
232 219 228 220 214 222 213 209 207 191 183 189 208 209 205 217 228 220 217 217 219 229 227 225 221 213 210 209 207 208 207 207 207 207 206 211 211 213 214 216 215 217 221 227
282 316 303 267 256 225 210 210 211 196 190 214 228 213 213 226 237 231 214 217 228 233 236 231 225 220 215 212 208 210 210 209 208 210 211 210 212 214 215 214 217 220 229 237
295 325 290 253 248 242 221 225 218 216 214 209 213 213 214 218 196 189 205 232 233 234 225 227 227 227 223 218 214 212 213 215 212 210 214 214 216 216 217 217 220 224 233 243
275 282 264 261 255 230 233 223 205 205 209 206 209 215 211 205 206 218 242 221 230 227 248 239 233 229 222 220 221 217 215 217 218 219 215 215 218 218 219 221 224 226 236 244
270 280 274 248 244 237 224 209 203 206 199 184 183 181 185 194 214 223 235 249 238 241 246 242 234 228 223 215 221 221 222 222 222 218 219 221 217 219 220 222 226 226 234 242
260 270 254 236 231 216 208 198 193 191 182 176 183 184 194 199 217 225 226 240 248 242 251 241 227 225 233 225 222 225 220 222 224 224 224 226 227 226 222 220 215 222 234 240
251 256 256 242 222 201 177 173 173 176 170 179 189 197 208 224 234 242 241 235 240 252 238 233 226 230 234 239 220 219 222 224 217 219 221 223 219 214 214 218 223 230 231 226
227 230 226 209 194 177 165 158 152 149 156 157 147 141 164 230 245 241 244 247 243 252 242 220 248 270 226 217 211 217 217 219 207 208 215 211 202 212 225 226 226 219 207 185
123 114 134 138 143 146 141 140 145 147 140 122 115 107 98 84 57 274 241 235 236 228 218 202 197 240 254 209 211 210 205 209 201 206 210 205 210 209 209 211 199 182 165 156
94 96 107 104 110 104 101 125 126 126 124 119 110 98 86 74 70 90 93 98 124 148 160 164 162 183 174 180 190 204 197 194 201 205 201 200 199 194 184 174 167 157 154 154
131 129 109 111 103 112 107 95 100 104 114 109 112 100 92 81 79 70 102 109 111 114 139 154 158 157 147 162 187 186 182 183 185 187 192 193 193 178 161 156 155 157 151 145
90 94 97 92 92 87 90 91 86 86 93 92 96 93 99 99 97 97 85 131 119 104 116 133 145 152 152 163 174 178 180 176 172 175 174 163 157 158 162 165 162 157 151 146
79 75 77 84 88 87 83 86 97 109 87 108 138 143 163 151 139 122 107 122 202 225 218 200 189 170 168 169 175 175 172 168 163 162 163 164 166 170 171 158 151 151 149 146
78 79 78 75 70 64 63 71 93 147 173 179 189 190 180 161 152 136 124 125 131 156 171 171 178 195 196 188 176 171 169 170 170 175 178 177 170 161 155 153 152 153 151 149
67 63 64 66 65 62 57 58 68 76 106 173 189 189 188 175 170 188 171 159 141 128 121 123 147 164 181 191 189 183 181 180 180 177 173 169 164 159 156 156 153 153 152 152
67 68 64 61 57 54 54 57 59 60 64 70 125 197 203 213 221 217 206 196 192 187 166 155 159 154 159 151 175 193 188 182 180 176 169 165 159 156 156 156 154 153 153 153